Zurück zum Katalog

STARLINK-31625

AktivKommunikationVLEO
NORAD 59458·PAYLOAD·🇺🇸 United States

Gestartet Apr 10, 2024 von Cape Canaveral Space Force Station

Loading…

Nächste Überflüge (nächste 24 Stunden)

TLE

AktuellSource: CelesTrak SupGP

Epoche: Sep 15, 2026, 02:03 UTC

1 59458C 24068D   26258.08590278 -.00021086  00000+0 -76355-3 0  2588
2 59458  43.0042  44.9862 0001516 266.4949 232.6504 15.27597152    19

Verfolge STARLINK-31625 in Echtzeit mit AllMySat

Download on the App Store